• Em Portugal
  • Lista de países
  • Para 7 dias
  • Temperatura da água
  • Mapas de satélite
  • Mapa do tempo
  • Widgets de tempo
  • user-avatar
    Iniciar Sessão

    Previsão horária em Okliny

    Hoje, 17 Outubro, Quarta-feira

    Tempo Temperatura Precipitação Vento Pressão Humidade
    00:00 +9°C° 0 mm 2 m/s 743 mmHg 72%
    01:00 +9°C° 0 mm 2 m/s 743 mmHg 72%
    02:00 +8°C° 0 mm 2 m/s 743 mmHg 74%
    03:00 +8°C° 0 mm 2 m/s 743 mmHg 74%
    04:00 +8°C° 0 mm 2 m/s 743 mmHg 75%
    05:00 +7°C° 0 mm 2 m/s 743 mmHg 75%
    06:00 +8°C° 0 mm 2 m/s 743 mmHg 75%
    07:00 +8°C° 0 mm 2 m/s 743 mmHg 74%
    08:00 +8°C° 0 mm 2 m/s 743 mmHg 71%
    09:00 +10°C° 0 mm 2 m/s 744 mmHg 64%
    10:00 +13°C° 0 mm 2 m/s 744 mmHg 58%
    11:00 +15°C° 0 mm 2 m/s 744 mmHg 52%
    12:00 +16°C° 0 mm 2 m/s 744 mmHg 49%
    13:00 +18°C° 0 mm 2 m/s 744 mmHg 46%
    14:00 +19°C° 0 mm 2 m/s 744 mmHg 43%
    15:00 +18°C° 0 mm 2 m/s 744 mmHg 47%
    16:00 +17°C° 0 mm 2 m/s 744 mmHg 51%
    17:00 +16°C° 0 mm 1 m/s 743 mmHg 56%
    18:00 +15°C° 0 mm 1 m/s 743 mmHg 58%
    19:00 +14°C° 0 mm 2 m/s 743 mmHg 59%
    20:00 +13°C° 0 mm 2 m/s 743 mmHg 61%
    21:00 +12°C° 0 mm 2 m/s 743 mmHg 62%
    22:00 +12°C° 0 mm 2 m/s 743 mmHg 63%
    23:00 +10°C° 0 mm 2 m/s 743 mmHg 64%

    Amanhã, 18 Outubro, Quinta-feira

    Tempo Temperatura Precipitação Vento Pressão Humidade
    00:00 +10°C° 0 mm 2 m/s 743 mmHg 66%
    01:00 +10°C° 0 mm 2 m/s 743 mmHg 68%
    02:00 +9°C° 0 mm 2 m/s 743 mmHg 70%
    03:00 +9°C° 0 mm 2 m/s 743 mmHg 73%
    04:00 +9°C° 0 mm 2 m/s 742 mmHg 76%
    05:00 +8°C° 0 mm 2 m/s 742 mmHg 79%
    06:00 +8°C° 0 mm 2 m/s 742 mmHg 80%
    07:00 +8°C° 0 mm 2 m/s 742 mmHg 82%
    08:00 +8°C° 0 mm 2 m/s 742 mmHg 83%
    09:00 +10°C° 0 mm 2 m/s 741 mmHg 76%
    10:00 +13°C° 0 mm 2 m/s 741 mmHg 69%
    11:00 +15°C° 0 mm 2 m/s 741 mmHg 61%
    12:00 +16°C° 0 mm 2 m/s 741 mmHg 58%
    13:00 +17°C° 0 mm 2 m/s 741 mmHg 54%
    14:00 +18°C° 0 mm 2 m/s 741 mmHg 50%
    15:00 +17°C° 0 mm 2 m/s 741 mmHg 54%
    16:00 +16°C° 0 mm 1 m/s 740 mmHg 59%
    17:00 +15°C° 0 mm 1 m/s 740 mmHg 63%
    18:00 +14°C° 0 mm 1 m/s 740 mmHg 66%
    19:00 +13°C° 0 mm 1 m/s 740 mmHg 69%
    20:00 +12°C° 0 mm 1 m/s 740 mmHg 73%
    21:00 +12°C° 0 mm 1 m/s 740 mmHg 74%
    22:00 +11°C° 0 mm 1 m/s 740 mmHg 76%
    23:00 +11°C° 0 mm 1 m/s 740 mmHg 77%

    Depois de amanhã, 19 Outubro, Sexta-feira

    Tempo Temperatura Precipitação Vento Pressão Humidade
    00:00 +11°C° 0 mm 1 m/s 741 mmHg 80%
    01:00 +10°C° 0 mm 1 m/s 741 mmHg 82%
    02:00 +9°C° 0 mm 2 m/s 741 mmHg 84%
    03:00 +9°C° 0 mm 2 m/s 741 mmHg 86%
    04:00 +8°C° 0 mm 2 m/s 741 mmHg 88%
    05:00 +8°C° 0 mm 2 m/s 741 mmHg 90%
    06:00 +8°C° 0 mm 2 m/s 741 mmHg 92%
    07:00 +8°C° 0 mm 2 m/s 741 mmHg 93%
    08:00 +8°C° 0 mm 2 m/s 742 mmHg 95%
    09:00 +9°C° 0 mm 2 m/s 742 mmHg 90%
    10:00 +10°C° 0 mm 2 m/s 742 mmHg 86%
    11:00 +11°C° 0 mm 3 m/s 743 mmHg 82%
    12:00 +11°C° 0 mm 3 m/s 743 mmHg 78%
    13:00 +11°C° 0 mm 3 m/s 743 mmHg 75%
    14:00 +12°C° 0 mm 2 m/s 743 mmHg 72%
    15:00 +10°C° 0 mm 2 m/s 743 mmHg 73%
    16:00 +10°C° 0 mm 2 m/s 743 mmHg 74%
    17:00 +9°C° 0 mm 2 m/s 743 mmHg 75%
    18:00 +8°C° 0 mm 2 m/s 744 mmHg 79%
    19:00 +7°C° 0 mm 2 m/s 744 mmHg 82%
    20:00 +7°C° 0 mm 1 m/s 744 mmHg 86%
    21:00 +6°C° 0 mm 1 m/s 744 mmHg 88%
    22:00 +6°C° 0 mm 1 m/s 744 mmHg 89%
    23:00 +6°C° 0 mm 1 m/s 745 mmHg 90%

    20 Outubro, Sábado

    Tempo Temperatura Precipitação Vento Pressão Humidade
    00:00 +5°C° 0 mm 1 m/s 745 mmHg 90%
    01:00 +5°C° 0 mm 1 m/s 745 mmHg 90%
    02:00 +4°C° 0 mm 0 m/s 745 mmHg 90%
    03:00 +4°C° 0 mm 0 m/s 745 mmHg 90%
    04:00 +3°C° 0 mm 0 m/s 745 mmHg 91%
    05:00 +3°C° 0 mm 0 m/s 745 mmHg 91%
    06:00 +3°C° 0 mm 0 m/s 745 mmHg 90%
    07:00 +4°C° 0 mm 1 m/s 745 mmHg 90%
    08:00 +5°C° 0 mm 1 m/s 745 mmHg 89%
    09:00 +6°C° 0 mm 1 m/s 745 mmHg 82%
    10:00 +8°C° 0 mm 1 m/s 745 mmHg 74%
    11:00 +9°C° 0 mm 2 m/s 745 mmHg 67%
    12:00 +9°C° 0 mm 2 m/s 745 mmHg 65%
    13:00 +10°C° 0 mm 3 m/s 745 mmHg 63%
    14:00 +11°C° 0 mm 4 m/s 745 mmHg 61%
    15:00 +10°C° 0 mm 3 m/s 745 mmHg 67%
    16:00 +9°C° 0 mm 3 m/s 745 mmHg 72%
    17:00 +9°C° 0 mm 3 m/s 745 mmHg 77%
    18:00 +8°C° 0 mm 3 m/s 744 mmHg 79%
    19:00 +8°C° 0 mm 3 m/s 744 mmHg 81%
    20:00 +8°C° 0 mm 3 m/s 744 mmHg 82%
    21:00 +8°C° 0.3 mm 3 m/s 744 mmHg 84%
    22:00 +7°C° 0.3 mm 3 m/s 744 mmHg 86%
    23:00 +6°C° 0.3 mm 4 m/s 744 mmHg 88%

    21 Outubro, Domingo

    Tempo Temperatura Precipitação Vento Pressão Humidade
    00:00 +6°C° 0.2 mm 4 m/s 744 mmHg 89%
    01:00 +6°C° 0.2 mm 4 m/s 744 mmHg 90%
    02:00 +5°C° 0.2 mm 4 m/s 744 mmHg 91%
    03:00 +5°C° 0 mm 3 m/s 744 mmHg 92%
    04:00 +4°C° 0 mm 3 m/s 744 mmHg 94%
    05:00 +4°C° 0 mm 3 m/s 744 mmHg 95%
    06:00 +4°C° 0 mm 3 m/s 745 mmHg 94%
    07:00 +4°C° 0 mm 3 m/s 745 mmHg 93%
    08:00 +4°C° 0 mm 3 m/s 745 mmHg 92%
    09:00 +5°C° 0 mm 3 m/s 746 mmHg 86%
    10:00 +7°C° 0 mm 3 m/s 746 mmHg 80%
    11:00 +8°C° 0 mm 3 m/s 746 mmHg 75%
    12:00 +8°C° 0 mm 3 m/s 746 mmHg 72%
    13:00 +9°C° 0 mm 3 m/s 746 mmHg 69%
    14:00 +10°C° 0 mm 3 m/s 746 mmHg 66%
    15:00 +9°C° 0 mm 2 m/s 746 mmHg 69%
    16:00 +9°C° 0 mm 1 m/s 746 mmHg 73%
    17:00 +8°C° 0 mm 1 m/s 746 mmHg 76%
    18:00 +8°C° 0 mm 1 m/s 746 mmHg 79%
    19:00 +7°C° 0 mm 1 m/s 746 mmHg 83%
    20:00 +6°C° 0 mm 1 m/s 746 mmHg 86%
    21:00 +6°C° 0 mm 1 m/s 746 mmHg 87%
    22:00 +4°C° 0 mm 2 m/s 746 mmHg 88%
    23:00 +4°C° 0 mm 2 m/s 746 mmHg 89%

    22 Outubro, Segunda-feira

    Tempo Temperatura Precipitação Vento Pressão Humidade
    00:00 +3°C° 0 mm 3 m/s 746 mmHg 89%
    01:00 +3°C° 0 mm 3 m/s 745 mmHg 89%
    02:00 +3°C° 0 mm 3 m/s 745 mmHg 89%
    03:00 +3°C° 0 mm 3 m/s 745 mmHg 87%
    04:00 +4°C° 0 mm 4 m/s 744 mmHg 85%
    05:00 +4°C° 0 mm 4 m/s 744 mmHg 84%
    06:00 +4°C° 0 mm 4 m/s 744 mmHg 82%
    07:00 +5°C° 0 mm 4 m/s 743 mmHg 80%
    08:00 +5°C° 0 mm 5 m/s 743 mmHg 79%
    09:00 +6°C° 0.2 mm 5 m/s 743 mmHg 79%
    10:00 +6°C° 0.2 mm 5 m/s 743 mmHg 79%
    11:00 +7°C° 0.2 mm 5 m/s 742 mmHg 79%
    12:00 +7°C° 0.4 mm 5 m/s 742 mmHg 81%
    13:00 +7°C° 0.4 mm 5 m/s 742 mmHg 84%
    14:00 +7°C° 0.4 mm 5 m/s 742 mmHg 86%
    15:00 +7°C° 0.7 mm 5 m/s 741 mmHg 87%
    16:00 +7°C° 0.7 mm 4 m/s 741 mmHg 88%
    17:00 +7°C° 0.7 mm 4 m/s 741 mmHg 90%
    18:00 +7°C° 0.2 mm 4 m/s 741 mmHg 89%
    19:00 +6°C° 0.2 mm 4 m/s 741 mmHg 89%
    20:00 +7°C° 0.2 mm 3 m/s 741 mmHg 88%
    21:00 +5°C° 0 mm 3 m/s 741 mmHg 89%
    22:00 +4°C° 0 mm 3 m/s 741 mmHg 89%
    23:00 +4°C° 0 mm 3 m/s 741 mmHg 89%
    Mostrar mais